Location: Mount Kobau Star Party
(49.1167°N, 119.7333°W)
Time: 14:28:29
(UTC-07:00)

Envisat - Visible Passes

Search period start: 16 April 2026 00:00
Search period end: 26 April 2026 00:00
Orbit: 761 x 762 km, 98.4° (Epoch: 16 April)

Date Brightness Start Highest point End Pass type
(mag) Time Alt. Az. Time Alt. Az. Time Alt. Az.
16 Apr 5.5 02:06:54 10° ENE 02:08:32 11° E 02:10:10 10° ESE visible
16 Apr 3.0 03:43:12 10° NNE 03:48:18 78° ESE 03:50:45 31° S visible
16 Apr 4.6 05:23:15 10° NNW 05:26:39 18° WNW 05:30:02 10° W visible
17 Apr 4.1 03:05:38 10° NNE 03:10:21 37° E 03:12:35 25° SE visible
17 Apr 3.8 04:44:42 10° N 04:49:14 34° WNW 04:52:44 15° WSW visible
18 Apr 5.1 02:28:41 10° NE 02:32:11 18° E 02:34:26 14° ESE visible
18 Apr 3.0 04:06:34 10° N 04:11:36 68° WNW 04:14:34 25° SSW visible
19 Apr 3.4 03:28:46 10° NNE 03:33:47 59° E 03:36:24 27° S visible
19 Apr 4.4 05:08:24 10° N 05:12:20 23° WNW 05:16:14 10° WSW visible
20 Apr 4.5 02:51:22 10° NE 02:55:45 29° E 02:58:14 19° SE visible
20 Apr 3.5 04:30:03 10° N 04:34:50 44° WNW 04:38:22 17° SW visible
21 Apr 5.4 02:14:54 10° NE 02:17:29 14° E 02:20:04 10° ESE visible
21 Apr 2.9 03:52:02 10° NNE 03:57:08 88° W 04:00:13 24° SSW visible
22 Apr 3.8 03:14:21 10° NNE 03:19:13 45° E 03:22:03 23° SSE visible
22 Apr 4.0 04:53:39 10° N 04:57:58 29° WNW 05:02:10 11° WSW visible
23 Apr 4.9 02:37:12 10° NE 02:41:06 22° E 02:43:52 15° SE visible
23 Apr 3.2 04:15:26 10° N 04:20:24 57° WNW 04:24:00 18° SW visible
24 Apr 5.7 02:02:26 10° E 02:02:46 10° E 02:03:05 10° E visible
24 Apr 3.1 03:37:32 10° NNE 03:42:37 71° ESE 03:45:50 23° S visible
24 Apr 4.5 05:17:26 10° NNW 05:21:02 20° WNW 05:24:38 10° WSW visible
25 Apr 4.3 03:00:01 10° NNE 03:04:38 34° E 03:07:40 18° SSE visible
25 Apr 3.7 04:38:57 10° N 04:43:35 37° WNW 04:47:48 12° SW visible
